Time,TemperatureF,DewpointF,PressureIn,WindDirection,WindDirectionDegrees,WindSpeedMPH,WindSpeedGustMPH,Humidity,HourlyPrecipIn,Conditions,Clouds,dailyrainin,SoftwareType,DateUTC
2013-09-14 06:20:00,65.8,62.8,29.98,WSW,246,1.0,5.0,90,0.00,RA,,0.01,WeatherDisplay:10.37,2013-09-13 20:20:00,
2013-09-14 11:00:00,82.0,70.4,29.99,South,190,3.0,7.0,68,0.00,,,0.00,WeatherDisplay:10.37,2013-09-14 01:00:00,
2013-09-14 11:05:00,81.7,70.1,29.99,SSE,160,3.0,8.0,68,0.00,,,0.00,WeatherDisplay:10.37,2013-09-14 01:05:00,
2013-09-14 11:10:00,82.0,70.4,29.98,East,98,3.0,9.0,68,0.00,,,0.00,WeatherDisplay:10.37,2013-09-14 01:10:00,
2013-09-14 11:15:00,82.3,71.1,29.99,East,87,5.0,9.0,69,0.00,,,0.00,WeatherDisplay:10.37,2013-09-14 01:15:00,
2013-09-14 11:45:00,83.6,72.3,29.97,ENE,71,2.0,6.0,69,0.00,RA,,0.01,WeatherDisplay:10.37,2013-09-14 01:45:00,
2013-09-14 11:50:00,83.8,72.1,29.97,ENE,68,2.0,5.0,68,0.00,RA,,0.01,WeatherDisplay:10.37,2013-09-14 01:50:00,
2013-09-14 11:55:00,83.8,72.1,29.97,ENE,69,2.0,4.0,68,0.00,RA,,0.01,WeatherDisplay:10.37,2013-09-14 01:55:00,
2013-09-14 12:00:00,83.9,72.6,29.96,ENE,69,0.0,4.0,69,0.00,RA,,0.01,WeatherDisplay:10.37,2013-09-14 02:00:00,
2013-09-14 12:10:00,84.4,72.2,29.96,ENE,69,3.0,7.0,67,0.00,RA,,0.01,WeatherDisplay:10.37,2013-09-14 02:10:00,
2013-09-14 12:15:00,84.4,73.1,29.95,ENE,69,3.0,7.0,69,0.00,RA,,0.01,WeatherDisplay:10.37,2013-09-14 02:15:00,
2013-09-14 12:20:00,84.6,73.3,29.95,ENE,68,1.0,4.0,69,0.00,RA,,0.01,WeatherDisplay:10.37,2013-09-14 02:20:00,
2013-09-14 12:25:00,84.7,73.4,29.94,ENE,68,1.0,6.0,69,0.00,RA,,0.01,WeatherDisplay:10.37,2013-09-14 02:25:00,
2013-09-14 12:30:00,85.0,74.1,29.95,ENE,68,0.0,4.0,70,0.00,RA,,0.01,WeatherDisplay:10.37,2013-09-14 02:30:00,
2013-09-14 12:35:00,85.4,74.5,29.94,ENE,68,1.0,4.0,70,0.00,RA,,0.01,WeatherDisplay:10.37,2013-09-14 02:35:00,
2013-09-14 12:40:00,85.3,73.5,29.94,ENE,66,1.0,4.0,68,0.00,RA,,0.01,WeatherDisplay:10.37,2013-09-14 02:40:00,
2013-09-14 12:45:00,85.3,74.0,29.94,ENE,63,0.0,3.0,69,0.00,RA,,0.01,WeatherDisplay:10.37,2013-09-14 02:45:00,
2013-09-14 12:50:00,85.2,73.4,29.94,ENE,62,0.0,3.0,68,0.00,RA,,0.01,WeatherDisplay:10.37,2013-09-14 02:50:00,
2013-09-14 12:55:00,85.2,74.3,29.93,ENE,63,1.0,3.0,70,0.00,RA,,0.01,WeatherDisplay:10.37,2013-09-14 02:55:00,
2013-09-14 13:00:00,85.1,74.2,29.93,ENE,64,2.0,5.0,70,0.00,RA,,0.01,WeatherDisplay:10.37,2013-09-14 03:00:00,
2013-09-14 13:10:00,85.1,73.8,29.93,ENE,71,3.0,10.0,69,0.00,RA,,0.01,WeatherDisplay:10.37,2013-09-14 03:10:00,
2013-09-14 13:15:00,84.8,74.3,29.93,ENE,71,3.0,10.0,71,0.00,RA,,0.01,WeatherDisplay:10.37,2013-09-14 03:15:00,
2013-09-14 13:20:00,85.0,73.7,29.93,ENE,71,5.0,9.0,69,0.00,RA,,0.01,WeatherDisplay:10.37,2013-09-14 03:20:00,
2013-09-14 13:25:00,84.9,72.7,29.92,ENE,70,6.0,9.0,67,0.00,RA,,0.01,WeatherDisplay:10.37,2013-09-14 03:25:00,
2013-09-14 13:30:00,84.6,73.7,29.92,ENE,70,6.0,9.0,70,0.00,RA,,0.01,WeatherDisplay:10.37,2013-09-14 03:30:00,
2013-09-14 13:35:00,84.0,72.7,29.92,ENE,73,7.0,12.0,69,0.00,RA,,0.01,WeatherDisplay:10.37,2013-09-14 03:35:00,
2013-09-14 13:40:00,83.6,71.9,29.92,ENE,74,9.0,12.0,68,0.00,RA,,0.01,WeatherDisplay:10.37,2013-09-14 03:40:00,
2013-09-14 13:50:00,83.1,72.8,29.92,ENE,74,7.0,10.0,71,0.00,RA,,0.01,WeatherDisplay:10.37,2013-09-14 03:50:00,
2013-09-14 13:55:00,83.1,73.2,29.91,ENE,72,6.0,12.0,72,0.00,RA,,0.01,WeatherDisplay:10.37,2013-09-14 03:55:00,
2013-09-14 14:00:00,82.7,72.3,29.91,ENE,72,7.0,12.0,71,0.00,RA,,0.01,WeatherDisplay:10.37,2013-09-14 04:00:00,
2013-09-14 14:05:00,82.7,73.6,29.91,ENE,73,7.0,10.0,74,0.00,RA,,0.01,WeatherDisplay:10.37,2013-09-14 04:05:00,
2013-09-14 14:10:00,82.7,73.2,29.91,ENE,72,7.0,12.0,73,0.00,RA,,0.01,WeatherDisplay:10.37,2013-09-14 04:10:00,
2013-09-14 14:15:00,82.2,72.7,29.91,ENE,74,8.0,12.0,73,0.00,RA,,0.01,WeatherDisplay:10.37,2013-09-14 04:15:00,
2013-09-14 14:20:00,82.0,72.9,29.91,ENE,74,7.0,12.0,74,0.00,RA,,0.01,WeatherDisplay:10.37,2013-09-14 04:20:00,
2013-09-14 14:25:00,82.4,73.7,29.91,ENE,71,5.0,12.0,75,0.00,RA,,0.01,WeatherDisplay:10.37,2013-09-14 04:25:00,
2013-09-14 14:30:00,82.3,73.2,29.90,ENE,71,7.0,12.0,74,0.00,RA,,0.01,WeatherDisplay:10.37,2013-09-14 04:30:00,
2013-09-14 14:35:00,81.4,72.3,29.90,ENE,76,8.0,12.0,74,0.00,RA,,0.01,WeatherDisplay:10.37,2013-09-14 04:35:00,
2013-09-14 14:40:00,80.7,72.1,29.90,East,81,9.0,12.0,75,0.00,RA,,0.01,WeatherDisplay:10.37,2013-09-14 04:40:00,
2013-09-14 14:45:00,80.1,71.5,29.90,East,86,10.0,13.0,75,0.00,RA,,0.01,WeatherDisplay:10.37,2013-09-14 04:45:00,
2013-09-14 14:50:00,80.2,72.3,29.90,East,82,7.0,13.0,77,0.00,RA,,0.01,WeatherDisplay:10.37,2013-09-14 04:50:00,
2013-09-14 15:00:00,80.6,72.3,29.90,ENE,74,10.0,12.0,76,0.00,RA,,0.01,WeatherDisplay:10.37,2013-09-14 05:00:00,
2013-09-14 15:05:00,80.7,72.4,29.90,ENE,73,7.0,12.0,76,0.00,RA,,0.01,WeatherDisplay:10.37,2013-09-14 05:05:00,
2013-09-14 15:10:00,81.1,73.2,29.90,ENE,71,7.0,12.0,77,0.00,RA,,0.01,WeatherDisplay:10.37,2013-09-14 05:10:00,
2013-09-14 15:15:00,80.9,72.2,29.89,ENE,70,8.0,12.0,75,0.00,RA,,0.01,WeatherDisplay:10.37,2013-09-14 05:15:00,
2013-09-14 15:20:00,80.7,72.5,29.89,ENE,73,8.0,12.0,76,0.00,RA,,0.01,WeatherDisplay:10.37,2013-09-14 05:20:00,
2013-09-14 15:25:00,80.6,72.3,29.89,ENE,75,6.0,12.0,76,0.00,RA,,0.01,WeatherDisplay:10.37,2013-09-14 05:25:00,
2013-09-14 15:30:00,80.7,72.8,29.89,ENE,73,7.0,12.0,77,0.00,RA,,0.01,WeatherDisplay:10.37,2013-09-14 05:30:00,
2013-09-14 15:35:00,80.8,72.9,29.89,ENE,70,7.0,10.0,77,0.00,RA,,0.01,WeatherDisplay:10.37,2013-09-14 05:35:00,
2013-09-14 15:40:00,80.5,72.6,29.89,ENE,73,9.0,12.0,77,0.00,RA,,0.01,WeatherDisplay:10.37,2013-09-14 05:40:00,
2013-09-14 15:45:00,80.1,72.2,29.89,ENE,73,8.0,12.0,77,0.00,RA,,0.01,WeatherDisplay:10.37,2013-09-14 05:45:00,
2013-09-14 15:50:00,79.6,71.7,29.89,ENE,71,9.0,13.0,77,0.00,RA,,0.01,WeatherDisplay:10.37,2013-09-14 05:50:00,
2013-09-14 15:55:00,79.4,72.3,29.89,ENE,74,8.0,13.0,79,0.00,RA,,0.01,WeatherDisplay:10.37,2013-09-14 05:55:00,
2013-09-14 16:00:00,79.2,72.1,29.90,ENE,74,10.0,14.0,79,0.00,RA,,0.01,WeatherDisplay:10.37,2013-09-14 06:00:00,
2013-09-14 16:10:00,78.8,71.8,29.90,East,80,12.0,14.0,79,0.00,RA,,0.01,WeatherDisplay:10.37,2013-09-14 06:10:00,
2013-09-14 16:15:00,78.6,71.9,29.90,East,86,8.0,15.0,80,0.00,RA,,0.01,WeatherDisplay:10.37,2013-09-14 06:15:00,
2013-09-14 16:20:00,78.5,71.8,29.90,East,84,9.0,14.0,80,0.00,RA,,0.01,WeatherDisplay:10.37,2013-09-14 06:20:00,
2013-09-14 16:25:00,78.6,71.9,29.90,ENE,78,9.0,13.0,80,0.00,RA,,0.01,WeatherDisplay:10.37,2013-09-14 06:25:00,
2013-09-14 16:30:00,78.4,71.7,29.90,ENE,78,9.0,13.0,80,0.00,RA,,0.01,WeatherDisplay:10.37,2013-09-14 06:30:00,
2013-09-14 16:35:00,78.3,72.0,29.90,ENE,75,9.0,12.0,81,0.00,RA,,0.01,WeatherDisplay:10.37,2013-09-14 06:35:00,
2013-09-14 16:40:00,78.2,71.5,29.90,East,80,9.0,12.0,80,0.00,RA,,0.01,WeatherDisplay:10.37,2013-09-14 06:40:00,
2013-09-14 16:45:00,77.9,70.9,29.90,East,91,9.0,12.0,79,0.00,RA,,0.01,WeatherDisplay:10.37,2013-09-14 06:45:00,
2013-09-14 16:50:00,77.8,70.7,29.90,East,91,9.0,12.0,79,0.00,RA,,0.01,WeatherDisplay:10.37,2013-09-14 06:50:00,
2013-09-14 16:55:00,77.8,71.1,29.90,East,89,9.0,12.0,80,0.00,RA,,0.01,WeatherDisplay:10.37,2013-09-14 06:55:00,
2013-09-14 17:00:00,77.7,71.0,29.90,East,90,10.0,13.0,80,0.00,RA,,0.01,WeatherDisplay:10.37,2013-09-14 07:00:00,
2013-09-14 17:10:00,77.7,71.0,29.90,East,95,9.0,12.0,80,0.00,RA,,0.01,WeatherDisplay:10.37,2013-09-14 07:10:00,
2013-09-14 17:15:00,77.5,70.5,29.91,East,94,6.0,12.0,79,0.00,RA,,0.01,WeatherDisplay:10.37,2013-09-14 07:15:00,
2013-09-14 17:20:00,77.5,70.9,29.91,East,93,6.0,10.0,80,0.00,RA,,0.01,WeatherDisplay:10.37,2013-09-14 07:20:00,
2013-09-14 17:25:00,77.4,70.4,29.91,East,97,5.0,7.0,79,0.00,RA,,0.01,WeatherDisplay:10.37,2013-09-14 07:25:00,
2013-09-14 17:30:00,77.3,70.3,29.91,East,97,5.0,7.0,79,0.00,RA,,0.01,WeatherDisplay:10.37,2013-09-14 07:30:00,
2013-09-14 17:35:00,77.4,70.4,29.91,East,98,5.0,7.0,79,0.00,RA,,0.01,WeatherDisplay:10.37,2013-09-14 07:35:00,
2013-09-14 17:40:00,77.3,70.3,29.91,East,99,3.0,5.0,79,0.00,RA,,0.01,WeatherDisplay:10.37,2013-09-14 07:40:00,
2013-09-14 17:45:00,77.2,70.2,29.90,East,96,5.0,7.0,79,0.00,RA,,0.01,WeatherDisplay:10.37,2013-09-14 07:45:00,
2013-09-14 17:50:00,77.0,70.0,29.90,ESE,102,3.0,6.0,79,0.00,RA,,0.01,WeatherDisplay:10.37,2013-09-14 07:50:00,
2013-09-14 17:55:00,76.9,69.9,29.91,ESE,106,3.0,6.0,79,0.00,RA,,0.01,WeatherDisplay:10.37,2013-09-14 07:55:00,
2013-09-14 18:00:00,76.9,69.9,29.91,East,100,5.0,9.0,79,0.00,RA,,0.01,WeatherDisplay:10.37,2013-09-14 08:00:00,
2013-09-14 18:05:00,76.9,69.9,29.91,East,98,5.0,7.0,79,0.00,RA,,0.01,WeatherDisplay:10.37,2013-09-14 08:05:00,
2013-09-14 18:15:00,76.9,69.6,29.91,East,98,2.0,8.0,78,0.00,RA,,0.01,WeatherDisplay:10.37,2013-09-14 08:15:00,
2013-09-14 18:20:00,76.9,69.5,29.91,East,99,1.0,3.0,78,0.00,RA,,0.01,WeatherDisplay:10.37,2013-09-14 08:20:00,
2013-09-14 18:25:00,76.9,69.5,29.92,East,99,0.0,3.0,78,0.00,RA,,0.01,WeatherDisplay:10.37,2013-09-14 08:25:00,
2013-09-14 18:30:00,76.6,68.8,29.92,East,99,0.0,1.0,77,0.00,RA,,0.01,WeatherDisplay:10.37,2013-09-14 08:30:00,
2013-09-14 18:35:00,76.4,68.6,29.92,East,99,0.0,0.0,77,0.00,RA,,0.01,WeatherDisplay:10.37,2013-09-14 08:35:00,
2013-09-14 18:40:00,76.2,68.8,29.92,East,99,0.0,2.0,78,0.00,RA,,0.01,WeatherDisplay:10.37,2013-09-14 08:40:00,
2013-09-14 18:45:00,76.0,68.6,29.92,East,99,0.0,0.0,78,0.00,RA,,0.01,WeatherDisplay:10.37,2013-09-14 08:45:00,
2013-09-14 18:50:00,75.7,68.4,29.92,East,99,0.0,1.0,78,0.00,RA,,0.01,WeatherDisplay:10.37,2013-09-14 08:50:00,
2013-09-14 18:55:00,75.5,68.1,29.93,East,99,0.0,0.0,78,0.00,RA,,0.01,WeatherDisplay:10.37,2013-09-14 08:55:00,
2013-09-14 19:00:00,75.1,67.8,29.93,East,99,0.0,1.0,78,0.00,RA,,0.01,WeatherDisplay:10.37,2013-09-14 09:00:00,
2013-09-14 19:05:00,74.9,67.9,29.93,East,99,0.0,2.0,79,0.00,RA,,0.01,WeatherDisplay:10.37,2013-09-14 09:05:00,
2013-09-14 19:10:00,74.6,67.7,29.94,East,100,0.0,0.0,79,0.00,RA,,0.01,WeatherDisplay:10.37,2013-09-14 09:10:00,
2013-09-14 19:20:00,74.0,67.4,29.94,East,100,0.0,0.0,80,0.00,RA,,0.01,WeatherDisplay:10.37,2013-09-14 09:20:00,
2013-09-14 19:25:00,73.7,67.5,29.94,East,100,0.0,0.0,81,0.00,RA,,0.01,WeatherDisplay:10.37,2013-09-14 09:25:00,
2013-09-14 19:30:00,73.4,67.2,29.94,East,100,0.0,0.0,81,0.00,RA,,0.01,WeatherDisplay:10.37,2013-09-14 09:30:00,
2013-09-14 19:35:00,73.2,67.3,29.94,East,100,0.0,0.0,82,0.00,RA,,0.01,WeatherDisplay:10.37,2013-09-14 09:35:00,
2013-09-14 19:40:00,73.0,67.2,29.94,East,100,0.0,1.0,82,0.00,RA,,0.01,WeatherDisplay:10.37,2013-09-14 09:40:00,
2013-09-14 19:45:00,72.7,66.9,29.95,East,100,0.0,0.0,82,0.00,RA,,0.01,WeatherDisplay:10.37,2013-09-14 09:45:00,
2013-09-14 19:50:00,72.7,67.2,29.95,East,100,0.0,0.0,83,0.00,RA,,0.01,WeatherDisplay:10.37,2013-09-14 09:50:00,
2013-09-14 19:55:00,72.7,67.2,29.95,East,100,0.0,1.0,83,0.00,RA,,0.01,WeatherDisplay:10.37,2013-09-14 09:55:00,
2013-09-14 20:00:00,72.7,67.2,29.95,East,100,0.0,2.0,83,0.00,RA,,0.01,WeatherDisplay:10.37,2013-09-14 10:00:00,
2013-09-14 20:10:00,72.9,67.5,29.96,ESE,107,0.0,1.0,83,0.00,RA,,0.01,WeatherDisplay:10.37,2013-09-14 10:10:00,
2013-09-14 20:15:00,73.0,67.5,29.96,ESE,107,0.0,2.0,83,0.00,RA,,0.01,WeatherDisplay:10.37,2013-09-14 10:15:00,
2013-09-14 20:25:00,73.2,67.7,29.96,ESE,109,0.0,0.0,83,0.00,RA,,0.01,WeatherDisplay:10.37,2013-09-14 10:25:00,
2013-09-14 20:30:00,73.3,67.8,29.96,ESE,109,0.0,1.0,83,0.00,RA,,0.01,WeatherDisplay:10.37,2013-09-14 10:30:00,
2013-09-14 20:35:00,73.3,67.5,29.96,ESE,110,0.0,1.0,82,0.00,RA,,0.01,WeatherDisplay:10.37,2013-09-14 10:35:00,
2013-09-14 20:40:00,73.4,67.6,29.97,ESE,110,0.0,2.0,82,0.00,RA,,0.01,WeatherDisplay:10.37,2013-09-14 10:40:00,
2013-09-14 20:45:00,73.4,67.6,29.96,ESE,110,0.0,3.0,82,0.00,RA,,0.01,WeatherDisplay:10.37,2013-09-14 10:45:00,
2013-09-14 20:55:00,73.4,67.6,29.96,ESE,110,0.0,2.0,82,0.00,RA,,0.01,WeatherDisplay:10.37,2013-09-14 10:55:00,
2013-09-14 21:00:00,73.4,67.5,29.97,ESE,110,0.0,1.0,82,0.00,RA,,0.01,WeatherDisplay:10.37,2013-09-14 11:00:00,
2013-09-14 21:05:00,73.3,67.5,29.97,ESE,110,0.0,1.0,82,0.00,RA,,0.01,WeatherDisplay:10.37,2013-09-14 11:05:00,
2013-09-14 21:10:00,73.2,67.8,29.97,ESE,110,0.0,2.0,83,0.00,RA,,0.01,WeatherDisplay:10.37,2013-09-14 11:10:00,
2013-09-14 21:15:00,73.1,67.6,29.97,ESE,111,0.0,0.0,83,0.00,RA,,0.01,WeatherDisplay:10.37,2013-09-14 11:15:00,
2013-09-14 21:20:00,73.0,67.5,29.97,ESE,111,0.0,0.0,83,0.00,RA,,0.01,WeatherDisplay:10.37,2013-09-14 11:20:00,
2013-09-14 21:30:00,72.6,67.2,29.97,ESE,111,0.0,1.0,83,0.00,RA,,0.01,WeatherDisplay:10.37,2013-09-14 11:30:00,
2013-09-14 21:35:00,72.6,67.1,29.97,ESE,111,0.0,2.0,83,0.00,RA,,0.01,WeatherDisplay:10.37,2013-09-14 11:35:00,
2013-09-14 21:40:00,72.5,67.4,29.97,ESE,111,0.0,1.0,84,0.00,RA,,0.01,WeatherDisplay:10.37,2013-09-14 11:40:00,
2013-09-14 21:45:00,72.4,67.3,29.97,ESE,111,0.0,0.0,84,0.00,RA,,0.01,WeatherDisplay:10.37,2013-09-14 11:45:00,
2013-09-14 21:50:00,72.3,67.2,29.97,ESE,111,0.0,1.0,84,0.00,RA,,0.01,WeatherDisplay:10.37,2013-09-14 11:50:00,
2013-09-14 21:55:00,72.2,67.1,29.97,ESE,111,0.0,1.0,84,0.00,RA,,0.01,WeatherDisplay:10.37,2013-09-14 11:55:00,
2013-09-14 22:00:00,72.1,67.0,29.97,ESE,111,0.0,1.0,84,0.00,RA,,0.01,WeatherDisplay:10.37,2013-09-14 12:00:00,
2013-09-14 22:10:00,72.0,67.2,29.97,ESE,113,0.0,2.0,85,0.00,RA,,0.01,WeatherDisplay:10.37,2013-09-14 12:10:00,
2013-09-14 22:15:00,72.0,67.2,29.97,ESE,118,0.0,3.0,85,0.00,RA,,0.01,WeatherDisplay:10.37,2013-09-14 12:15:00,
2013-09-14 22:20:00,71.9,67.2,29.97,ESE,122,0.0,2.0,85,0.00,RA,,0.01,WeatherDisplay:10.37,2013-09-14 12:20:00,
2013-09-14 22:25:00,71.9,67.1,29.97,SSE,167,0.0,4.0,85,0.00,RA,,0.01,WeatherDisplay:10.37,2013-09-14 12:25:00,
2013-09-14 22:30:00,71.8,67.1,29.97,SSW,204,0.0,1.0,85,0.00,RA,,0.01,WeatherDisplay:10.37,2013-09-14 12:30:00,
2013-09-14 22:35:00,71.8,67.0,29.97,SSW,203,0.0,2.0,85,0.00,RA,,0.01,WeatherDisplay:10.37,2013-09-14 12:35:00,
2013-09-14 22:40:00,71.7,66.9,29.97,SSW,203,0.0,0.0,85,0.00,RA,,0.01,WeatherDisplay:10.37,2013-09-14 12:40:00,
2013-09-14 22:45:00,71.6,66.8,29.97,SSW,203,0.0,1.0,85,0.00,RA,,0.01,WeatherDisplay:10.37,2013-09-14 12:45:00,
2013-09-14 22:50:00,71.5,66.7,29.97,SSW,203,0.0,0.0,85,0.00,RA,,0.01,WeatherDisplay:10.37,2013-09-14 12:50:00,
2013-09-14 22:55:00,71.3,66.6,29.97,SSW,203,0.0,1.0,85,0.00,RA,,0.01,WeatherDisplay:10.37,2013-09-14 12:55:00,
2013-09-14 23:00:00,71.2,66.4,29.97,SSW,203,0.0,1.0,85,0.00,RA,,0.01,WeatherDisplay:10.37,2013-09-14 13:00:00,
2013-09-14 23:05:00,71.0,66.3,29.97,SSW,203,0.0,0.0,85,0.00,RA,,0.01,WeatherDisplay:10.37,2013-09-14 13:05:00,
2013-09-14 23:10:00,70.8,66.4,29.96,SSW,203,0.0,1.0,86,0.00,RA,,0.01,WeatherDisplay:10.37,2013-09-14 13:10:00,
2013-09-14 23:15:00,70.8,66.4,29.96,SSW,203,0.0,2.0,86,0.00,RA,,0.01,WeatherDisplay:10.37,2013-09-14 13:15:00,
2013-09-14 23:20:00,70.7,66.3,29.96,SSW,203,0.0,1.0,86,0.00,RA,,0.01,WeatherDisplay:10.37,2013-09-14 13:20:00,
2013-09-14 23:25:00,70.6,66.2,29.96,SSW,203,0.0,1.0,86,0.00,RA,,0.01,WeatherDisplay:10.37,2013-09-14 13:25:00,
2013-09-14 23:30:00,70.6,66.2,29.95,SSW,203,0.0,2.0,86,0.00,RA,,0.01,WeatherDisplay:10.37,2013-09-14 13:30:00,
2013-09-14 23:35:00,70.7,66.0,29.95,SSW,210,0.0,4.0,85,0.00,RA,,0.01,WeatherDisplay:10.37,2013-09-14 13:35:00,
2013-09-14 23:45:00,70.7,66.0,29.95,SW,226,0.0,2.0,85,0.00,RA,,0.01,WeatherDisplay:10.37,2013-09-14 13:45:00,
2013-09-14 23:50:00,70.7,66.0,29.95,SW,226,0.0,1.0,85,0.00,RA,,0.01,WeatherDisplay:10.37,2013-09-14 13:50:00,
2013-09-14 23:55:00,70.6,65.9,29.95,SW,220,0.0,3.0,85,0.00,RA,,0.01,WeatherDisplay:10.37,2013-09-14 13:55:00,